P/2005 S2 ( Skiff )

Japanese version
Home page
Updated on October 12, 2005

---------------------------------------------------------------------

* Profile

Discovery Date September 29, 2005
Magnitude 19.1 mag
Discoverer B. Skiff (Lowell Observatory)

* Orbital Elements

Epoch 2006 July 4.0 TT = JDT 2453920.5
T 2006 June 29.06564 TT                                 MPC
q   6.3983877            (2000.0)            P               Q
n   0.04384170     Peri.  229.82413     +0.85595987     -0.51674280
a   7.9654649      Node   161.26907     +0.48947194     +0.79888436
e   0.1967339      Incl.    3.14085     +0.16658306     +0.30783219
P  22.48

* Magnitudes Graph

        m1 = 7.5 + 5 log d + 10.0 log r

---------------------------------------------------------------------

The orbital elements are published on M.P.E.C. 2005-T76.
The magnitudes graphs are made with Comet for Windows.

---------------------------------------------------------------------

Copyright(C) Seiichi Yoshida (comet@aerith.net). All rights reserved.